IRIDIUM 106

Last updated on Fri Sep 11 2026 00:03:05 GMT+0000 (Coordinated Universal Time)

1 41917U 17003A 26253.56192070 .00000009 00000+0 -39741-5 0 9999 2 41917 86.3932 52.8325 0001916 82.2654 277.8760 14.34217213505447
UTC large
Height (km)
Speed (km/s)
/
Latitude / Longitude
Inclination (degrees)
Orbital Period (minutes)
Azimuth
Elevation
Range (km)
Doppler Factor

Next 0 passes for location: London (51.5072 / 0.1276)

No passes found over London.
IRIDIUM 106